| time (UTC) | temp F | wind direction | speed MPH | gust MPH | rain 1hr in | rain 24hr in | rain mn in | humidity % | barometer mb |
| 20260504000004 | 59 | 191 | 5.0 | 12.0 | 0.00 | 0.00 | 0.00 | 55 | 1010.9 |
| 20260503235004 | 59 | 166 | 4.0 | 13.0 | 0.00 | 0.00 | 0.00 | 54 | 1011.0 |
| 20260503234003 | 59 | 174 | 4.0 | 10.0 | 0.00 | 0.00 | 0.00 | 53 | 1011.0 |
| 20260503233004 | 59 | 176 | 4.0 | 10.0 | 0.00 | 0.00 | 0.00 | 54 | 1011.1 |
| 20260503232003 | 59 | 172 | 6.0 | 16.0 | 0.00 | 0.00 | 0.00 | 52 | 1011.2 |
| 20260503231003 | 59 | 183 | 5.0 | 16.0 | 0.00 | 0.00 | 0.00 | 53 | 1011.4 |
| 20260503230003 | 59 | 181 | 4.0 | 9.0 | 0.00 | 0.00 | 0.00 | 53 | 1011.6 |
| 20260503225003 | 59 | 194 | 5.0 | 12.0 | 0.00 | 0.00 | 0.00 | 51 | 1011.5 |
| 20260503224024 | 59 | 196 | 7.0 | 19.0 | 0.00 | 0.00 | 0.00 | 52 | 1011.6 |
| 20260503223003 | 60 | 172 | 6.0 | 15.0 | 0.00 | 0.00 | 0.00 | 51 | 1011.5 |
| 20260503222003 | 60 | 177 | 5.0 | 16.0 | 0.00 | 0.00 | 0.00 | 51 | 1011.3 |
| 20260503221024 | 60 | 200 | 7.0 | 16.0 | 0.00 | 0.00 | 0.00 | 51 | 1011.4 |
| 20260503220003 | 60 | 192 | 8.0 | 21.0 | 0.00 | 0.00 | 0.00 | 51 | 1011.5 |
| 20260503215003 | 60 | 203 | 7.0 | 20.0 | 0.00 | 0.00 | 0.00 | 50 | 1011.4 |
| 20260503214004 | 60 | 212 | 8.0 | 17.0 | 0.00 | 0.00 | 0.00 | 49 | 1011.6 |
| 20260503213003 | 60 | 204 | 8.0 | 18.0 | 0.00 | 0.00 | 0.00 | 50 | 1011.7 |
| 20260503212003 | 60 | 202 | 7.0 | 16.0 | 0.00 | 0.00 | 0.00 | 50 | 1011.8 |
| 20260503211024 | 60 | 168 | 7.0 | 18.0 | 0.00 | 0.00 | 0.00 | 51 | 1012.1 |
| 20260503210004 | 59 | 176 | 6.0 | 16.0 | 0.00 | 0.00 | 0.00 | 51 | 1012.4 |
| 20260503205003 | 59 | 166 | 8.0 | 15.0 | 0.00 | 0.00 | 0.00 | 50 | 1012.6 |
| 20260503204003 | 60 | 179 | 7.0 | 17.0 | 0.00 | 0.00 | 0.00 | 50 | 1012.6 |
| 20260503203004 | 61 | 199 | 8.0 | 18.0 | 0.00 | 0.00 | 0.00 | 49 | 1013.0 |
| 20260503202003 | 61 | 175 | 7.0 | 22.0 | 0.00 | 0.00 | 0.00 | 49 | 1013.3 |
| 20260503201024 | 60 | 154 | 9.0 | 16.0 | 0.00 | 0.00 | 0.00 | 47 | 1013.4 |
| 20260503200003 | 60 | 159 | 8.0 | 17.0 | 0.00 | 0.00 | 0.00 | 48 | 1013.7 |
| 20260503195003 | 60 | 191 | 5.0 | 12.0 | 0.00 | 0.00 | 0.00 | 51 | 1014.0 |
| 20260503194003 | 59 | 203 | 6.0 | 14.0 | 0.00 | 0.00 | 0.00 | 51 | 1014.4 |
| 20260503193003 | 58 | 209 | 5.0 | 13.0 | 0.00 | 0.00 | 0.00 | 51 | 1014.9 |
| 20260503192025 | 58 | 215 | 6.0 | 11.0 | 0.00 | 0.00 | 0.00 | 51 | 1015.3 |
| 20260503191003 | 58 | 202 | 6.0 | 12.0 | 0.00 | 0.00 | 0.00 | 50 | 1015.1 |
| 20260503190003 | 58 | 215 | 6.0 | 14.0 | 0.00 | 0.00 | 0.00 | 52 | 1015.1 |
| 20260503185004 | 58 | 178 | 6.0 | 17.0 | 0.00 | 0.00 | 0.00 | 51 | 1015.2 |
| 20260503184024 | 58 | 169 | 4.0 | 11.0 | 0.00 | 0.00 | 0.00 | 51 | 1014.9 |
| 20260503183004 | 59 | 201 | 6.0 | 15.0 | 0.00 | 0.00 | 0.00 | 52 | 1015.1 |
| 20260503182004 | 57 | 196 | 6.0 | 14.0 | 0.00 | 0.00 | 0.00 | 52 | 1015.4 |
| 20260503181003 | 56 | 173 | 5.0 | 12.0 | 0.00 | 0.00 | 0.00 | 52 | 1015.8 |
| 20260503180004 | 56 | 192 | 7.0 | 15.0 | 0.00 | 0.00 | 0.00 | 52 | 1016.2 |
| 20260503175003 | 57 | 185 | 5.0 | 13.0 | 0.00 | 0.00 | 0.00 | 53 | 1016.2 |
| 20260503174003 | 57 | 193 | 6.0 | 14.0 | 0.00 | 0.00 | 0.00 | 51 | 1016.4 |
| 20260503173003 | 57 | 197 | 7.0 | 14.0 | 0.00 | 0.00 | 0.00 | 51 | 1016.6 |
| 20260503172003 | 58 | 185 | 8.0 | 19.0 | 0.00 | 0.00 | 0.00 | 49 | 1016.7 |
| 20260503171003 | 58 | 194 | 7.0 | 20.0 | 0.00 | 0.00 | 0.00 | 52 | 1016.9 |
| 20260503151003 | 56 | 195 | 7.0 | 17.0 | 0.00 | 0.00 | 0.00 | 48 | 1018.1 |
| 20260503131003 | 50 | 212 | 5.0 | 11.0 | 0.00 | 0.00 | 0.00 | 55 | 1018.5 |
| 20260503081003 | 37 | 175 | 0.0 | 1.0 | 0.00 | 0.00 | 0.00 | 79 | 1018.0 |
| 20260503072024 | 37 | 213 | 0.0 | 1.0 | 0.00 | 0.00 | 0.00 | 83 | 1018.0 |
| 20260503071003 | 37 | 0 | 0.0 | 1.0 | 0.00 | 0.00 | 0.00 | 83 | 1018.0 |
| 20260503055024 | 35 | 0 | 0.0 | 0.0 | 0.00 | 0.00 | 0.00 | 89 | 1018.4 |
| 20260503054003 | 35 | 0 | 0.0 | 0.0 | 0.00 | 0.00 | 0.00 | 88 | 1018.5 |
| 20260503053003 | 35 | 0 | 0.0 | 0.0 | 0.00 | 0.00 | 0.00 | 88 | 1018.5 |
| 20260503052003 | 35 | 0 | 0.0 | 0.0 | 0.00 | 0.00 | 0.00 | 88 | 1018.5 |
| 20260503051024 | 35 | 0 | 0.0 | 0.0 | 0.00 | 0.00 | 0.00 | 88 | 1018.6 |
| 20260503050003 | 35 | 0 | 0.0 | 0.0 | 0.00 | 0.00 | 0.00 | 88 | 1018.6 |
| 20260503045003 | 35 | 0 | 0.0 | 0.0 | 0.00 | 0.00 | 0.00 | 87 | 1018.6 |
| 20260503044024 | 36 | 0 | 0.0 | 0.0 | 0.00 | 0.00 | 0.00 | 87 | 1018.6 |
| 20260503043024 | 36 | 0 | 0.0 | 0.0 | 0.00 | 0.00 | 0.00 | 87 | 1018.6 |
| 20260503042003 | 36 | 0 | 0.0 | 0.0 | 0.00 | 0.00 | 0.00 | 87 | 1018.6 |
| 20260503041004 | 36 | 0 | 0.0 | 0.0 | 0.00 | 0.00 | 0.00 | 87 | 1018.6 |
| 20260503040004 | 36 | 0 | 0.0 | 0.0 | 0.00 | 0.00 | 0.00 | 86 | 1018.5 |
| 20260503035003 | 36 | 0 | 0.0 | 0.0 | 0.00 | 0.00 | 0.00 | 86 | 1018.6 |
| 20260503034003 | 37 | 0 | 0.0 | 0.0 | 0.00 | 0.00 | 0.00 | 85 | 1018.5 |
| 20260503033003 | 37 | 0 | 0.0 | 0.0 | 0.00 | 0.00 | 0.00 | 84 | 1018.5 |
| 20260503032003 | 38 | 0 | 0.0 | 0.0 | 0.00 | 0.00 | 0.00 | 84 | 1018.6 |
| 20260503031003 | 37 | 0 | 0.0 | 0.0 | 0.00 | 0.00 | 0.00 | 84 | 1018.6 |
| 20260503030024 | 38 | 0 | 0.0 | 0.0 | 0.00 | 0.00 | 0.00 | 82 | 1018.6 |
| 20260503025003 | 38 | 0 | 0.0 | 0.0 | 0.00 | 0.00 | 0.00 | 82 | 1018.7 |
| 20260503024003 | 38 | 0 | 0.0 | 0.0 | 0.00 | 0.00 | 0.00 | 79 | 1018.6 |
| 20260503023024 | 39 | 0 | 0.0 | 0.0 | 0.00 | 0.00 | 0.00 | 80 | 1018.5 |
| 20260503022003 | 40 | 0 | 0.0 | 0.0 | 0.00 | 0.00 | 0.00 | 78 | 1018.5 |
| 20260503021003 | 40 | 0 | 0.0 | 0.0 | 0.00 | 0.00 | 0.00 | 75 | 1018.4 |
| 20260503020003 | 40 | 0 | 0.0 | 0.0 | 0.00 | 0.00 | 0.00 | 74 | 1018.3 |
| 20260503015003 | 41 | 306 | 0.0 | 2.0 | 0.00 | 0.00 | 0.00 | 71 | 1018.2 |
| 20260503014003 | 42 | 306 | 0.0 | 1.0 | 0.00 | 0.00 | 0.00 | 71 | 1018.1 |
| 20260503013003 | 43 | 306 | 0.0 | 2.0 | 0.00 | 0.00 | 0.00 | 68 | 1018.1 |
| 20260503012003 | 42 | 319 | 0.0 | 2.0 | 0.00 | 0.00 | 0.00 | 67 | 1018.0 |
| 20260503011024 | 44 | 0 | 0.0 | 0.0 | 0.00 | 0.00 | 0.00 | 61 | 1017.9 |
| 20260503010003 | 45 | 0 | 0.0 | 0.0 | 0.00 | 0.00 | 0.00 | 56 | 1017.8 |
| 20260503005003 | 45 | 0 | 0.0 | 1.0 | 0.00 | 0.00 | 0.00 | 54 | 1017.8 |
| 20260503004003 | 47 | 351 | 0.0 | 1.0 | 0.00 | 0.00 | 0.00 | 48 | 1017.8 |
| 20260503003003 | 48 | 0 | 0.0 | 0.0 | 0.00 | 0.00 | 0.00 | 48 | 1017.8 |
| 20260503002003 | 49 | 336 | 1.0 | 3.0 | 0.00 | 0.00 | 0.00 | 45 | 1017.6 |
| 20260503001003 | 49 | 342 | 2.0 | 5.0 | 0.00 | 0.00 | 0.00 | 43 | 1017.6 |